Location: *
(44.1392°N, 4.8079°E)
Time: 07:30:15
(UTC+00:00)

IRIDIUM 103 - Pass Details

Date: 21 June 2021
Orbit: 776 x 779 km, 86.4° (Epoch: 31 July)

Event Time Altitude Azimuth Distance (km) Brightness Sun altitude
Rises 02:22:29 0° 352° (N) 3,272 8.3 -13.2°
Reaches altitude 10° 02:24:52 10° 349° (N) 2,340 7.4 -12.9°
Maximum altitude 02:30:00 58° 272° (W) 909 4.5 -12.3°
Enters shadow 02:34:29 13° 196° (SSW) 2,096 6.0 -11.8°
